This is the latest recevied weather packets stored in our database for station/object IZ1HMT-3. If no packets are shown the sender has not sent any weather packets the latest 10 day(s).
| Time | Temp. | Humidity | Pressure | Rain* | Wind** | Luminosity | Snow |
|---|---|---|---|---|---|---|---|
| 1787780438 | 26.67° C | 61% | 1017.2 hPa | - | - | - | - |
| 1787778626 | 26.67° C | 61% | 1017.4 hPa | - | - | - | - |
| 1787778023 | 26.67° C | 61% | 1017.4 hPa | - | - | - | - |
| 1787777419 | 27.22° C | 61% | 1017.5 hPa | - | - | - | - |
| 1787776815 | 27.22° C | 61% | 1017.4 hPa | - | - | - | - |
| 1787776212 | 27.22° C | 61% | 1017.2 hPa | - | - | - | - |
| 1787775608 | 27.22° C | 61% | 1017.2 hPa | - | - | - | - |
| 1787775005 | 27.78° C | 60% | 1017.3 hPa | - | - | - | - |
| 1787774401 | 27.78° C | 60% | 1017.4 hPa | - | - | - | - |
| 1787773797 | 27.78° C | 60% | 1017 hPa | - | - | - | - |
| 1787772590 | 28.33° C | 59% | 1016.7 hPa | - | - | - | - |
| 1787771987 | 28.89° C | 58% | 1016.7 hPa | - | - | - | - |
| 1787771383 | 28.89° C | 58% | 1016.5 hPa | - | - | - | - |
| 1787770779 | 28.89° C | 57% | 1016.6 hPa | - | - | - | - |
| 1787770175 | 29.44° C | 57% | 1016.4 hPa | - | - | - | - |
| 1787768968 | 29.44° C | 56% | 1016.1 hPa | - | - | - | - |
| 1787767761 | 30° C | 55% | 1015.7 hPa | - | - | - | - |
| 1787766553 | 30° C | 56% | 1015.5 hPa | - | - | - | - |
| 1787765346 | 30.56° C | 55% | 1016.2 hPa | - | - | - | - |
| 1787763535 | 30.56° C | 55% | 1017 hPa | - | - | - | - |
| 1787762932 | 30.56° C | 55% | 1016.9 hPa | - | - | - | - |
| 1787762328 | 30.56° C | 54% | 1017.1 hPa | - | - | - | - |
| 1787759914 | 31.67° C | 52% | 1016.6 hPa | - | - | - | - |
| 1787758707 | 31.67° C | 50% | 1016.7 hPa | - | - | - | - |
| 1787758103 | 32.22° C | 50% | 1016.7 hPa | - | - | - | - |
* Rain since midnight (hover to see other rain measurements)
** Current wind speed in m/s (hover to see current wind gust speed)